Total_Precipitation_Accumulation
2.37 2.53 2.53 2.40 2.43 2.55 2.80 3.01 3.02 2.83 2.72 2.64 2.36 2.23 2.18 2.15 2.29 2.18 2.25 2.15 1.72 1.47 1.41 1.42 1.41 1.44 1.50 1.66 1.88 2.13 2.30 2.42 2.56 2.79 3.11 3.44 3.74 4.02
2.70 2.77 2.65 2.42 2.52 2.58 2.73 3.00 3.25 3.27 3.02 2.65 2.43 2.31 2.30 2.04 2.09 1.89 1.92 1.83 1.51 1.36 1.27 1.22 1.20 1.21 1.22 1.28 1.40 1.63 1.81 1.97 2.12 2.24 2.39 2.56 2.79 3.01
2.71 2.62 2.50 2.55 2.70 2.64 2.76 2.91 3.13 3.34 3.10 2.77 2.64 2.58 2.56 2.36 2.19 1.90 1.66 1.52 1.40 1.46 1.31 1.19 1.15 1.15 1.20 1.26 1.32 1.43 1.57 1.71 1.88 2.03 2.19 2.37 2.48 2.59
2.66 2.60 2.48 2.59 2.69 2.67 2.73 2.74 2.80 3.07 3.00 2.80 2.75 2.78 2.66 2.43 2.30 2.10 1.75 1.55 1.55 1.65 1.50 1.34 1.25 1.23 1.20 1.21 1.30 1.39 1.48 1.57 1.71 1.82 1.87 1.92 2.08 2.30
2.59 2.51 2.40 2.46 2.42 2.49 2.53 2.51 2.50 2.61 2.78 2.70 2.61 2.69 2.60 2.40 2.31 2.14 2.01 2.09 1.91 1.76 1.61 1.46 1.35 1.30 1.28 1.22 1.25 1.35 1.46 1.49 1.51 1.63 1.76 1.85 1.91 1.97
2.28 2.20 2.21 2.31 2.37 2.37 2.30 2.29 2.35 2.49 2.59 2.61 2.59 2.67 2.68 2.64 2.49 2.36 2.37 2.32 2.16 1.73 1.61 1.43 1.33 1.23 1.17 1.11 1.13 1.30 1.45 1.51 1.54 1.54 1.60 1.69 1.79 1.87
2.04 1.86 1.89 2.18 2.31 2.28 2.12 2.19 2.27 2.38 2.47 2.58 2.62 2.71 2.77 2.91 2.67 2.41 2.32 2.38 2.26 2.03 1.85 1.61 1.46 1.34 1.30 1.26 1.22 1.23 1.28 1.39 1.50 1.62 1.76 1.85 1.90 1.94
1.78 1.71 1.73 1.82 1.84 1.89 1.89 1.89 1.94 2.02 2.23 2.49 2.60 2.59 2.57 2.66 2.72 2.59 2.49 2.44 2.41 2.32 2.34 2.23 1.90 1.80 1.68 1.54 1.43 1.19 1.07 1.14 1.29 1.41 1.65 1.91 2.15 2.22
1.74 1.79 1.57 1.43 1.55 1.58 1.71 1.70 1.63 1.70 1.81 2.07 2.28 2.30 2.37 2.37 2.60 2.62 2.66 2.73 2.70 2.65 2.64 2.69 2.35 2.05 1.81 1.72 1.62 1.28 1.12 1.07 1.13 1.22 1.32 1.52 1.82 2.14
1.65 1.68 1.64 1.55 1.52 1.62 1.69 1.64 1.51 1.46 1.43 1.41 1.64 1.92 2.12 2.33 2.37 2.44 2.57 2.66 2.67 2.52 2.47 2.57 2.41 2.25 1.93 1.64 1.52 1.32 1.13 1.01 0.97 1.02 1.03 1.09 1.23 1.47
1.64 1.59 1.55 1.51 1.55 1.43 1.41 1.44 1.43 1.40 1.25 1.24 1.32 1.53 1.72 1.77 1.96 2.22 2.45 2.44 2.40 2.20 2.01 2.12 2.19 2.18 2.12 1.87 1.49 1.35 1.15 0.98 0.93 0.94 0.92 0.92 0.99 1.09
1.63 1.60 1.50 1.37 1.34 1.22 1.22 1.37 1.35 1.33 1.34 1.27 1.18 1.20 1.29 1.44 1.52 1.59 1.90 2.10 2.02 1.98 1.73 1.63 1.63 1.72 1.87 1.70 1.43 1.32 1.28 1.14 0.97 0.94 0.93 0.91 0.96 0.91
1.65 1.61 1.55 1.41 1.21 1.16 1.13 1.19 1.25 1.21 1.27 1.31 1.27 1.22 1.30 1.42 1.39 1.35 1.51 1.72 1.79 1.62 1.43 1.48 1.42 1.33 1.33 1.31 1.22 1.09 1.12 1.23 1.19 1.07 1.00 1.00 1.02 1.04
1.81 1.77 1.68 1.46 1.21 1.12 1.05 1.04 1.02 0.94 0.98 1.12 1.16 1.11 1.14 1.25 1.33 1.32 1.37 1.40 1.45 1.37 1.32 1.39 1.47 1.40 1.26 1.13 1.05 0.95 0.93 1.03 1.19 1.38 1.47 1.46 1.34 1.29
1.79 1.83 1.56 1.32 1.16 1.00 0.98 0.97 0.88 0.82 0.93 1.00 0.99 0.97 0.96 1.06 1.26 1.40 1.45 1.46 1.40 1.22 1.08 1.11 1.25 1.40 1.39 1.19 0.99 0.91 0.89 0.96 1.09 1.30 1.45 1.57 1.64 1.66
1.57 1.64 1.49 1.31 1.16 1.03 0.98 0.93 0.88 0.91 0.99 1.00 1.01 1.04 1.05 1.11 1.19 1.27 1.38 1.43 1.41 1.20 1.07 1.06 1.14 1.32 1.36 1.20 1.06 0.97 0.95 1.03 1.09 1.29 1.52 1.64 1.68 1.75
1.56 1.58 1.56 1.42 1.29 1.18 1.15 1.18 1.19 1.14 1.06 1.05 1.08 1.11 1.10 1.10 1.15 1.21 1.28 1.32 1.26 1.09 0.96 1.02 1.13 1.30 1.32 1.29 1.20 1.03 0.98 0.97 0.99 1.15 1.42 1.54 1.59 1.65
1.38 1.39 1.50 1.50 1.42 1.34 1.27 1.27 1.26 1.20 1.13 1.13 1.11 1.10 1.08 1.05 1.08 1.12 1.16 1.17 1.16 1.06 0.95 0.92 1.06 1.25 1.33 1.19 0.98 0.92 0.91 0.87 0.91 1.08 1.22 1.28 1.22 1.25
1.19 1.24 1.34 1.39 1.35 1.32 1.26 1.23 1.19 1.20 1.20 1.15 1.10 1.12 1.10 1.05 1.05 1.08 1.10 1.16 1.15 1.12 1.07 1.06 1.08 1.13 1.16 1.02 0.86 0.74 0.84 0.88 0.95 1.02 1.11 1.09 1.01 1.02
1.05 1.12 1.17 1.22 1.23 1.23 1.22 1.21 1.17 1.18 1.17 1.15 1.12 1.12 1.12 1.08 1.09 1.10 1.07 1.09 1.15 1.18 1.18 1.12 1.07 1.03 0.99 1.01 0.99 0.89 0.78 0.95 1.05 1.01 0.97 1.00 0.97 0.92
0.98 1.00 1.01 1.03 1.07 1.12 1.13 1.17 1.16 1.13 1.13 1.17 1.13 1.11 1.13 1.15 1.16 1.16 1.16 1.17 1.17 1.21 1.18 1.04 0.99 1.11 1.25 1.32 1.20 1.03 0.98 0.94 1.06 1.09 1.07 1.11 1.09 1.05
0.93 0.96 0.92 0.91 0.96 1.03 1.09 1.15 1.14 1.15 1.19 1.16 1.14 1.13 1.12 1.14 1.13 1.15 1.18 1.21 1.23 1.22 1.20 1.21 1.28 1.35 1.38 1.31 1.19 1.16 1.23 1.17 1.12 1.11 1.07 1.09 1.05 0.95
0.90 0.86 0.81 0.83 0.88 0.93 0.98 1.02 1.09 1.16 1.15 1.13 1.15 1.12 1.07 1.08 1.07 1.09 1.09 1.12 1.18 1.27 1.38 1.40 1.37 1.31 1.28 1.30 1.27 1.22 1.20 1.25 1.27 1.22 1.11 1.01 0.92 0.83